Wind_Speed
3 3 3 1 4 5 1 1 1 2 1 1 2 2 2 2 3 2 6 1 3 6 13 16 16 15 14 14 12 10 9 7 5 3 2 3 3 3 1 2 4 6 6 5 5 4 3 2 1
3 2 1 2 5 4 4 3 1 1 1 1 2 3 2 1 2 3 4 3 3 4 11 14 15 15 14 13 11 11 9 7 5 4 4 5 5 5 4 5 5 6 5 4 3 2 2 1 1
3 3 0 4 4 4 3 3 2 2 2 3 2 2 2 1 2 2 4 3 3 1 7 13 14 15 14 12 11 11 10 8 7 6 6 6 6 6 5 7 7 7 7 7 5 3 3 2 3
3 2 5 5 2 1 2 1 2 1 2 3 3 2 1 1 1 2 5 6 4 0 3 11 15 15 14 14 13 13 12 10 9 8 8 8 8 6 5 7 8 7 8 9 6 5 5 5 5
4 3 4 4 3 3 3 2 1 1 1 2 3 2 4 3 0 1 3 6 6 2 3 5 13 16 15 15 15 14 13 12 11 10 9 8 7 9 7 8 9 9 11 8 7 6 6 6 6
3 3 5 2 2 3 3 3 1 2 3 2 2 5 3 7 4 4 2 3 6 3 1 4 8 14 17 17 17 16 16 14 13 11 10 10 9 8 8 8 9 10 11 8 6 6 6 7 6
5 4 4 4 1 3 2 5 3 0 3 2 4 3 2 6 9 6 5 4 4 4 3 4 7 11 16 18 18 19 18 17 15 13 12 12 11 11 10 10 10 10 10 9 7 7 7 7 6
3 5 3 2 1 1 3 2 3 2 1 2 3 2 4 12 9 5 5 5 6 6 5 5 7 10 14 17 20 19 19 18 17 15 15 15 14 14 12 12 11 11 11 11 8 8 7 6 6
2 4 1 3 5 2 2 4 2 5 3 4 3 5 11 10 9 6 4 5 8 8 9 10 9 10 12 15 18 18 19 18 17 17 17 17 17 16 16 13 12 12 12 11 10 9 9 8 7
4 4 6 3 2 1 3 1 6 3 9 0 6 9 9 7 6 5 8 9 11 11 11 12 12 12 12 14 16 17 17 17 18 17 17 18 19 18 17 15 14 14 13 12 11 10 10 11 10
3 4 3 2 6 2 3 5 1 1 4 3 8 11 7 5 2 3 4 7 9 9 9 11 12 13 14 14 15 16 15 18 19 18 18 18 18 18 17 17 17 16 14 14 13 12 10 12 12
1 3 4 2 3 2 3 5 5 5 1 7 5 4 6 6 7 6 6 6 6 6 7 10 13 14 15 14 14 13 14 16 18 16 20 20 19 19 19 19 19 19 18 17 17 14 13 13 13
2 2 3 6 9 10 9 7 6 17 9 6 4 2 6 8 7 7 8 7 8 9 10 10 12 14 16 17 15 14 13 11 13 19 18 20 19 19 20 19 20 20 20 19 18 17 15 15 15
1 4 10 10 11 8 5 3 2 7 6 4 3 8 9 9 9 7 7 8 8 7 8 9 10 12 14 17 15 14 12 11 9 8 11 17 19 22 22 20 20 19 21 20 20 19 16 15 17
1 4 7 5 4 4 5 1 6 3 3 6 5 5 6 10 10 9 9 10 10 10 11 9 8 9 8 12 14 12 10 9 7 6 6 7 10 10 14 18 19 16 19 20 22 21 20 20 19
3 4 3 2 2 0 4 7 2 3 6 4 2 3 5 7 9 9 8 7 8 9 10 12 9 5 3 6 10 10 9 7 6 6 8 9 9 10 13 15 16 17 19 19 18 23 24 21 22
5 3 4 8 2 2 2 6 7 7 10 6 5 5 5 6 7 9 10 9 9 9 10 10 10 7 6 6 7 7 6 4 6 7 8 8 8 8 8 10 11 14 15 18 19 21 22 20 22
6 4 4 5 1 3 1 8 10 10 3 8 8 8 8 9 12 13 13 14 14 13 12 13 14 14 13 12 9 7 6 2 3 5 7 10 11 11 12 12 12 13 14 13 16 14 20 17 17
5 4 5 3 3 2 6 7 7 6 11 11 11 11 12 14 15 16 18 19 20 20 20 18 14 14 11 9 8 7 5 6 4 2 4 7 7 9 10 11 12 11 8 9 10 12 12 14 16
3 3 5 5 3 5 4 9 3 5 3 9 14 13 13 15 16 19 22 24 25 26 27 26 26 23 20 17 16 14 12 9 8 6 5 6 8 10 11 13 14 13 12 11 12 13 15 17 17
5 6 4 7 2 1 2 7 3 4 9 9 10 13 14 15 17 19 20 23 24 25 26 27 29 29 29 29 26 22 18 13 9 9 7 8 9 8 9 9 11 14 16 18 19 18 18 17 17
5 8 6 4 3 4 1 4 4 4 5 6 11 13 15 15 16 18 19 21 23 26 25 24 24 23 23 21 19 17 18 17 16 14 13 11 9 9 9 8 7 8 11 14 16 18 19 21 20
6 5 6 4 4 1 3 1 6 4 5 6 11 13 14 15 15 17 18 19 20 20 18 18 18 18 17 17 17 16 16 15 13 12 10 11 11 11 11 11 11 10 9 9 10 10 11 14 16
9 6 7 5 3 1 8 7 3 5 4 5 14 17 19 19 18 18 18 17 16 15 13 13 13 15 13 13 13 13 13 12 9 10 10 11 12 12 13 13 14 14 14 14 15 15 13 12 12
5 6 1 3 1 5 1 2 8 7 5 7 19 25 21 18 18 18 16 14 12 10 9 9 9 10 9 8 9 10 9 9 10 11 11 11 12 14 15 16 16 16 17 16 16 16 16 16 16
6 6 5 7 4 4 1 6 6 2 5 8 22 26 22 20 18 16 12 10 7 6 5 5 5 6 6 6 7 8 9 9 10 10 11 12 14 15 15 15 16 17 18 18 19 20 19 18 18
5 4 4 6 2 2 5 4 3 1 3 7 19 25 25 23 21 16 12 9 6 3 1 1 2 3 3 3 5 6 6 6 7 8 10 12 14 15 17 18 19 19 20 22 23 23 24 24 24
3 6 4 3 1 5 4 4 5 6 8 6 11 26 27 24 22 19 14 10 7 4 3 3 2 2 1 1 2 4 5 6 8 9 11 13 15 16 17 19 20 21 23 25 26 28 30 31 31
3 3 3 4 4 5 2 5 5 7 8 14 18 28 26 25 24 21 16 12 9 8 6 7 5 4 3 2 3 5 7 9 10 12 14 16 17 18 19 20 22 24 28 31 34 36 37 38 39
1 6 6 5 5 2 2 8 3 3 14 24 26 28 24 22 21 20 19 17 14 11 11 10 10 8 6 4 4 6 8 10 12 14 15 18 19 20 21 23 26 29 32 35 38 41 43 45 45
Wind_Direction
325 327 329 321 61 67 343 288 251 345 31 65 103 100 139 130 146 204 352 22 21 162 183 184 185 184 184 186 193 198 197 204 209 224 242 250 237 200 222 297 311 326 331 353 10 38 55 63 76
360 7 7 99 83 69 283 273 230 244 6 84 101 66 60 351 5 357 8 359 23 145 187 190 191 195 196 198 205 209 211 214 227 240 237 233 237 253 271 285 312 325 334 332 348 4 15 18 353
30 12 27 93 107 149 183 231 234 302 49 62 82 66 101 35 28 47 31 27 13 131 188 201 200 202 204 204 204 207 211 224 240 251 253 245 247 255 268 292 313 318 324 320 312 316 313 306 296
9 6 57 76 94 221 198 289 240 331 59 48 51 61 330 345 65 89 61 54 34 72 182 203 210 213 213 213 213 215 221 234 243 248 245 249 252 241 261 300 306 317 318 310 298 295 298 297 292
21 55 56 74 315 287 283 353 164 348 4 15 22 348 323 0 16 110 61 43 31 12 213 207 216 221 224 226 227 228 232 240 244 246 249 257 261 283 289 296 303 312 322 302 298 297 300 299 294
62 61 62 139 263 296 324 23 74 12 0 16 37 344 17 25 21 349 0 19 19 9 257 235 227 225 231 233 235 237 241 244 245 244 246 245 268 273 289 293 299 307 323 320 317 306 304 303 300
100 77 156 167 272 343 323 354 83 125 338 23 355 355 30 37 358 321 307 316 1 7 333 272 248 237 232 234 238 241 243 242 244 244 243 245 256 262 278 287 292 301 318 325 322 314 309 308 304
78 92 102 232 177 196 348 49 101 73 323 350 338 316 333 336 351 0 329 307 310 324 307 282 266 253 242 239 240 242 243 244 242 243 244 249 258 262 267 276 288 297 308 320 316 312 305 300 288
68 61 161 215 159 205 10 30 88 319 278 320 314 342 321 310 302 303 316 288 282 287 296 285 277 265 257 250 247 246 245 245 245 245 244 248 256 262 264 269 276 288 295 307 314 309 302 293 279
81 106 219 218 214 231 329 11 338 342 324 129 353 341 320 290 285 269 284 287 282 273 263 258 262 271 267 257 253 252 249 248 245 244 245 251 258 264 269 271 273 277 280 295 306 304 303 289 278
129 171 203 253 249 277 313 312 112 161 298 345 352 353 28 48 18 314 327 328 321 306 271 256 252 251 255 259 256 255 249 239 241 248 249 248 252 264 260 265 271 280 279 289 296 302 293 281 277
96 234 207 260 235 276 289 306 301 245 224 345 327 47 30 14 4 352 335 327 317 307 292 265 256 251 246 244 255 259 259 258 261 257 253 254 258 259 261 263 270 276 282 288 290 294 295 283 272
167 272 251 269 275 277 277 261 264 277 314 98 133 6 7 2 357 340 335 321 303 295 292 288 274 261 247 236 235 250 260 270 267 257 251 254 257 261 265 267 271 278 282 286 293 290 292 291 282
248 296 293 289 276 270 236 246 220 79 93 63 25 0 358 359 357 343 314 316 318 315 298 298 299 288 263 236 228 239 258 275 296 312 273 263 268 262 261 267 271 289 281 287 296 301 296 293 292
344 332 324 274 290 201 180 268 227 136 69 47 1 348 349 356 355 355 346 338 341 337 333 323 313 309 288 236 224 228 244 265 284 300 308 296 287 283 270 267 274 285 289 289 292 290 295 300 297
29 55 358 309 133 349 151 256 274 94 356 46 79 65 21 4 8 15 16 9 3 359 350 350 343 325 303 203 203 209 220 232 261 277 272 269 271 273 270 269 280 286 283 285 288 283 279 286 296
6 242 206 319 1 140 137 270 270 342 348 108 97 74 67 60 45 38 40 40 38 38 39 43 51 64 87 123 148 171 185 197 245 258 279 282 279 277 284 284 282 284 282 285 284 278 277 282 285
202 215 240 236 288 43 155 266 284 16 102 121 108 102 93 80 66 64 65 65 63 62 66 71 72 76 83 92 102 115 121 165 264 303 295 277 290 291 293 289 286 283 283 281 278 291 283 275 286
149 183 214 248 230 164 244 244 285 44 107 119 118 112 100 91 86 84 81 80 81 83 84 86 92 88 89 96 100 99 84 87 108 104 348 306 311 301 297 295 294 289 320 311 300 296 292 304 301
143 169 238 286 249 169 280 264 103 33 74 149 141 132 121 111 106 97 93 90 86 83 81 82 83 85 85 84 79 75 70 71 64 44 7 338 309 306 313 316 319 327 310 309 307 306 313 305 302
198 198 193 220 1 273 347 291 182 56 99 123 140 137 132 125 114 105 99 92 88 84 80 78 76 73 72 70 68 67 63 59 54 49 23 11 356 333 311 299 293 306 313 313 314 314 313 313 310
200 201 193 171 114 230 104 271 297 169 156 160 161 156 148 140 125 112 105 98 90 86 82 76 72 70 69 66 58 50 51 51 60 57 50 43 35 19 8 355 337 319 301 296 295 296 297 297 302
211 126 161 154 145 93 274 329 258 134 227 200 192 174 158 144 133 122 112 104 96 90 79 66 56 50 51 47 42 40 40 58 60 58 49 46 44 44 39 33 25 12 0 346 327 322 320 310 296
145 80 54 54 76 295 228 186 253 195 206 165 187 187 175 163 150 138 128 118 109 94 83 67 49 46 49 47 50 48 53 57 54 48 35 34 30 27 24 21 19 17 11 9 4 2 355 342 321
98 105 19 353 2 231 342 159 245 188 192 190 185 189 183 172 159 150 141 134 120 106 86 70 66 59 54 47 48 46 39 38 28 23 20 17 14 14 13 10 7 5 6 2 358 354 353 350 349
181 163 156 207 201 252 128 232 266 295 316 263 198 184 181 181 175 162 152 142 125 105 91 81 58 44 52 56 54 48 36 26 21 13 6 3 3 3 3 360 357 354 350 347 344 343 342 339 335
187 187 158 106 57 60 209 278 248 29 43 123 166 179 188 188 187 181 175 166 158 153 128 104 42 52 75 66 53 35 28 17 9 4 360 354 353 351 349 348 346 344 341 338 335 332 329 327 325
160 159 79 6 235 263 255 256 223 220 201 161 181 191 195 193 196 198 198 196 198 201 225 258 242 192 133 59 27 10 352 350 348 347 342 341 339 335 333 334 336 336 335 332 329 327 324 320 317
145 179 74 136 154 191 283 252 213 220 172 180 203 202 198 200 205 208 211 215 222 231 247 253 238 223 226 260 318 335 337 336 336 335 336 336 334 331 330 330 330 329 328 326 323 321 318 315 312
320 200 162 184 222 256 141 262 14 283 177 181 197 205 207 212 216 221 226 232 234 240 250 243 233 228 231 251 286 308 313 319 323 325 326 328 328 329 328 327 326 324 322 321 320 318 316 315 312
Height
1533 1533 1533 1534 1545 1550 1559 1550 1545 1543 1543 1542 1541 1542 1543 1543 1546 1557 1543 1543 1542 1543 1545 1547 1549 1552 1555 1557 1559 1561 1563 1564 1566 1567 1567 1569 1570 1570 1570 1570 1570 1570 1570 1570 1570 1569 1569 1569 1569
1533 1533 1533 1534 1554 1567 1564 1549 1545 1542 1542 1542 1542 1542 1543 1545 1544 1544 1544 1543 1543 1544 1546 1548 1550 1552 1554 1556 1559 1560 1562 1564 1566 1567 1568 1569 1570 1570 1570 1571 1570 1570 1569 1569 1570 1570 1570 1570 1570
1533 1533 1534 1541 1561 1566 1560 1546 1543 1542 1542 1542 1542 1543 1543 1544 1544 1544 1544 1544 1544 1544 1545 1547 1549 1551 1553 1555 1558 1560 1562 1564 1565 1567 1568 1569 1570 1570 1570 1570 1570 1570 1570 1570 1570 1570 1570 1570 1570
1533 1534 1537 1549 1549 1547 1547 1543 1543 1542 1542 1542 1542 1543 1544 1544 1544 1545 1545 1545 1545 1545 1546 1547 1549 1551 1553 1555 1557 1559 1561 1563 1565 1567 1568 1568 1569 1569 1569 1569 1569 1570 1570 1569 1569 1569 1569 1569 1569
1533 1534 1548 1554 1552 1548 1546 1544 1544 1543 1543 1542 1543 1544 1544 1544 1544 1545 1546 1546 1546 1546 1547 1548 1549 1551 1553 1556 1558 1559 1561 1563 1565 1566 1567 1567 1568 1569 1569 1569 1569 1569 1569 1569 1568 1568 1568 1568 1568
1534 1537 1556 1560 1551 1546 1544 1544 1544 1544 1543 1543 1543 1543 1544 1545 1546 1546 1546 1546 1546 1546 1546 1547 1548 1550 1552 1554 1556 1558 1560 1562 1563 1565 1566 1567 1568 1568 1569 1569 1569 1569 1569 1568 1568 1568 1568 1568 1568
1535 1545 1556 1554 1552 1547 1545 1543 1544 1543 1543 1544 1544 1544 1545 1545 1546 1546 1546 1546 1546 1546 1547 1547 1548 1549 1550 1552 1554 1556 1558 1561 1562 1564 1565 1566 1566 1567 1568 1568 1569 1568 1568 1567 1567 1567 1567 1567 1567
1537 1542 1551 1552 1555 1548 1544 1543 1544 1544 1544 1545 1544 1545 1545 1544 1544 1545 1544 1545 1546 1546 1547 1547 1548 1549 1549 1551 1552 1554 1556 1558 1560 1562 1563 1564 1565 1566 1567 1567 1568 1567 1567 1567 1567 1567 1566 1567 1567
1538 1551 1557 1548 1551 1545 1544 1544 1544 1544 1544 1544 1545 1545 1545 1543 1542 1542 1543 1543 1543 1544 1545 1546 1546 1547 1548 1549 1550 1552 1554 1556 1558 1560 1561 1562 1563 1564 1565 1566 1566 1566 1566 1567 1567 1566 1566 1567 1567
1539 1554 1548 1543 1542 1543 1542 1543 1544 1544 1542 1543 1543 1543 1541 1539 1540 1539 1539 1539 1540 1541 1541 1542 1543 1545 1545 1547 1548 1550 1552 1554 1555 1557 1559 1561 1562 1563 1564 1564 1565 1565 1565 1566 1565 1566 1566 1566 1566
1541 1547 1542 1541 1541 1541 1542 1542 1543 1543 1541 1542 1542 1540 1538 1538 1537 1537 1537 1537 1537 1537 1537 1538 1539 1540 1542 1543 1545 1547 1549 1551 1553 1555 1556 1558 1559 1560 1561 1562 1563 1564 1564 1564 1564 1564 1564 1564 1565
1541 1540 1541 1540 1540 1540 1540 1541 1541 1541 1540 1541 1540 1539 1538 1537 1537 1536 1536 1536 1536 1535 1535 1535 1535 1536 1538 1540 1542 1544 1546 1549 1551 1552 1554 1555 1557 1558 1558 1560 1561 1562 1562 1562 1562 1562 1562 1562 1563
1540 1539 1539 1539 1539 1539 1539 1540 1540 1537 1538 1538 1539 1538 1537 1536 1536 1535 1535 1534 1533 1533 1532 1532 1532 1532 1533 1536 1539 1542 1545 1547 1549 1551 1552 1553 1554 1556 1557 1557 1558 1559 1560 1560 1560 1559 1560 1560 1560
1539 1538 1538 1536 1536 1537 1537 1537 1538 1538 1537 1537 1536 1535 1534 1534 1534 1534 1533 1531 1530 1530 1530 1529 1528 1528 1529 1531 1535 1540 1543 1546 1548 1549 1550 1551 1552 1553 1554 1555 1556 1556 1557 1558 1558 1558 1557 1558 1558
1538 1540 1537 1533 1533 1534 1535 1536 1535 1536 1536 1535 1535 1535 1535 1533 1533 1531 1530 1529 1527 1527 1526 1526 1526 1526 1526 1528 1532 1536 1540 1543 1546 1547 1548 1549 1550 1550 1551 1553 1553 1554 1554 1554 1555 1555 1555 1555 1555
1541 1543 1547 1534 1534 1534 1535 1542 1531 1534 1534 1534 1535 1535 1534 1533 1531 1531 1530 1528 1527 1526 1525 1524 1524 1524 1524 1526 1529 1533 1537 1540 1542 1543 1545 1545 1546 1547 1548 1549 1550 1551 1551 1551 1551 1552 1552 1553 1553
1549 1550 1549 1541 1533 1534 1536 1538 1529 1532 1532 1533 1535 1535 1535 1534 1532 1530 1529 1528 1527 1526 1525 1524 1523 1523 1523 1526 1528 1531 1534 1538 1540 1542 1543 1544 1544 1544 1544 1544 1546 1546 1547 1548 1548 1548 1548 1548 1548
1548 1550 1547 1544 1535 1534 1536 1537 1527 1531 1530 1533 1534 1535 1535 1534 1533 1532 1530 1528 1527 1527 1525 1525 1525 1525 1526 1528 1530 1532 1535 1538 1540 1541 1542 1543 1543 1543 1543 1543 1543 1544 1544 1543 1542 1544 1543 1543 1544
1536 1542 1541 1537 1534 1536 1536 1536 1529 1532 1532 1533 1535 1536 1537 1536 1536 1535 1534 1531 1530 1528 1527 1526 1526 1527 1529 1529 1530 1533 1535 1537 1538 1540 1541 1542 1542 1543 1543 1542 1542 1542 1541 1542 1541 1541 1540 1540 1540
1535 1539 1542 1538 1534 1537 1534 1533 1533 1535 1535 1535 1534 1536 1538 1539 1539 1539 1538 1536 1533 1532 1530 1529 1528 1529 1529 1530 1531 1533 1535 1537 1539 1540 1542 1541 1541 1541 1542 1542 1542 1541 1541 1540 1540 1539 1539 1539 1539
1536 1539 1538 1537 1535 1534 1535 1535 1532 1538 1538 1538 1538 1537 1537 1538 1539 1539 1539 1538 1538 1537 1536 1535 1534 1533 1532 1532 1534 1535 1536 1538 1540 1541 1541 1539 1540 1541 1540 1539 1538 1540 1540 1539 1538 1538 1537 1537 1538
1533 1527 1529 1533 1538 1547 1537 1546 1528 1534 1536 1536 1537 1536 1536 1537 1539 1539 1540 1539 1539 1538 1540 1540 1540 1539 1537 1536 1537 1537 1536 1538 1539 1538 1539 1538 1537 1538 1539 1538 1536 1534 1536 1538 1536 1535 1535 1534 1534
1523 1524 1529 1532 1539 1540 1539 1547 1530 1534 1535 1536 1536 1538 1538 1538 1539 1540 1541 1541 1541 1542 1543 1543 1542 1541 1542 1540 1537 1537 1535 1536 1538 1539 1540 1539 1538 1537 1538 1537 1536 1535 1534 1533 1533 1532 1532 1531 1531
1519 1526 1534 1543 1547 1555 1537 1536 1529 1531 1522 1530 1532 1535 1534 1534 1535 1536 1538 1538 1538 1540 1542 1542 1543 1543 1542 1542 1540 1540 1539 1539 1539 1539 1540 1539 1539 1538 1538 1538 1536 1534 1535 1533 1533 1532 1530 1529 1528
1517 1527 1543 1550 1558 1544 1539 1541 1518 1515 1517 1518 1523 1528 1534 1537 1536 1535 1536 1539 1539 1539 1539 1540 1540 1540 1539 1540 1541 1541 1540 1539 1539 1541 1540 1540 1539 1539 1538 1538 1536 1535 1534 1534 1533 1531 1529 1527 1526
1517 1517 1534 1546 1552 1542 1539 1534 1515 1518 1517 1516 1520 1528 1533 1535 1537 1537 1539 1541 1543 1543 1542 1540 1541 1540 1540 1540 1539 1539 1540 1539 1539 1540 1539 1539 1537 1538 1537 1537 1536 1534 1533 1533 1531 1529 1527 1525 1523
1516 1520 1515 1537 1579 1559 1524 1516 1514 1519 1517 1518 1520 1524 1528 1531 1535 1537 1537 1537 1538 1540 1542 1541 1539 1539 1539 1540 1540 1539 1538 1539 1539 1539 1537 1537 1537 1537 1537 1534 1533 1532 1531 1529 1528 1526 1524 1522 1520
1504 1510 1523 1536 1545 1559 1517 1515 1504 1511 1512 1518 1524 1520 1523 1526 1531 1533 1536 1537 1536 1538 1539 1540 1539 1538 1538 1539 1538 1538 1539 1539 1538 1538 1537 1537 1535 1535 1533 1532 1530 1529 1528 1527 1525 1520 1520 1517 1515
1509 1510 1515 1517 1527 1535 1541 1509 1501 1500 1504 1510 1518 1520 1519 1522 1527 1529 1532 1534 1535 1535 1535 1536 1537 1537 1537 1539 1538 1537 1538 1538 1538 1537 1535 1534 1534 1532 1530 1527 1526 1525 1523 1521 1518 1515 1513 1509 1506
1498 1499 1501 1505 1521 1536 1530 1495 1501 1498 1499 1504 1509 1516 1519 1521 1525 1527 1529 1531 1529 1531 1533 1534 1535 1536 1536 1536 1536 1536 1536 1536 1535 1533 1532 1532 1531 1528 1526 1525 1523 1521 1519 1515 1512 1508 1504 1499 1497